Tracking 27112 objects as of 27-Mar-2023
HD Live streaming from Space Station
objects crossing your sky now

SOLRAD 11A

Track SOLRAD 11A now!
SOLRAD 11A is classified as:


NORAD ID: 8748
Int'l Code: 1976-023C
Perigee: 116,967.5 km
Apogee: 120,019.5 km
Inclination: 20.8 °
Period: 7,318.4 minutes
Semi major axis: 124864 km
RCS: Unknown
Launch date: March 15, 1976
Source: United States (US)
Launch site: AIR FORCE EASTERN TEST RANGE (AFETR)
Your satellite tracking list
Your tracking list is empty




NASA's NSSDC Master Catalog

Two Line Element Set (TLE):
1 08748U 76023C   23085.20469362 -.00000996  00000-0  00000-0 0  9990
2 08748  20.7517 333.6377 0122214 147.0019  10.3545  0.19676354  3144
Source of the keplerian elements: AFSPC